Погода в Войнове

Россия / Владимирская область     55°16′12″N   41°37′40″E
темп.,
°C
ветер,
м/с
пор.,
м/с
влажн.,
%
обл.,
%
осадки,
мм/ч
давл.,
гПа
погр.,
м
6 марта, сб
сб600:00−12сз33900 0.0 101429
03:00−14зсз22870 0.0 101520
06:00−15з22939 0.0 101520
09:00−11з239441 0.0 1016131
12:00−6зсз248490 0.0 1016614
15:00−5зсз347795 0.3 1014935
18:00−9зсз238698 0.1 101421
21:00−11зюз228989 0.1 101422
7 марта, вс
вс700:00−12зюз349572 0.0 101352
03:00−14юз349538 0.0 101175
06:00−14ююз499433 0.0 1009171
09:00−8ююз7148367 0.0 1005608
12:00−6ююз91493100 0.8 10001028
15:00−4ююз91593100 2.3 9951226
18:00−3юз81494100 1.5 991925
21:00−7зсз61578100 2.2 992932
8 марта, пн
пн800:00−10зюз613811 0.0 995366
03:00−11зюз410949 0.0 996216
06:00−10юз489682 0.1 995256
09:00−7зюз239291 0.8 995304
12:00−5зсз587871 0.1 9971059
15:00−6з698452 0.1 9991092
18:00−7сз51091100 0.4 1002671
21:00−11сз499394 0.4 1005211
9 марта, вт
вт900:00−14зсз479680 0.0 1008118
03:00−16сз349768 0.0 101081
06:00−19сз349818 0.0 101267
09:00−16ссз36929 0.0 1014302
12:00−13сз358473 0.0 1015586
15:00−12сз468386 0.0 1016793
18:00−17сз3491100 0.0 101688
21:00−21сз359650 0.0 101987
10 марта, ср
ср1000:00−23сз349812 0.0 102056
03:00−25сз34986 0.0 102156
06:00−27сз34980 0.0 102254
09:00−23ссз35941 0.0 1024255
12:00−19ссз348360 0.0 1024567
15:00−16ссз348180 0.0 1024717
18:00−20ссз239296 0.0 102521
21:00−24ссз239657 0.0 102720